TimeCST,TemperatureF,Dew PointF,Humidity,Sea Level PressureIn,VisibilityMPH,Wind Direction,Wind SpeedMPH,Gust SpeedMPH,PrecipitationIn,Events,Conditions,WindDirDegrees,DateUTC
12:13 AM,48.2,48.2,100,29.52,7.0,WSW,8.1,-,N/A,,Overcast,240,2012-11-11 06:13:00
12:33 AM,44.6,44.6,100,29.54,1.5,West,15.0,27.6,N/A,,Overcast,260,2012-11-11 06:33:00
12:53 AM,42.8,41.0,93,29.55,5.0,West,16.1,26.5,N/A,,Overcast,280,2012-11-11 06:53:00
1:13 AM,39.2,39.2,100,29.56,10.0,West,13.8,19.6,N/A,,Overcast,280,2012-11-11 07:13:00
1:33 AM,37.4,37.4,100,29.57,10.0,West,16.1,24.2,N/A,,Overcast,270,2012-11-11 07:33:00
1:53 AM,37.4,37.4,100,29.59,10.0,WNW,13.8,21.9,N/A,,Overcast,290,2012-11-11 07:53:00
2:13 AM,35.6,35.6,100,29.62,10.0,West,15.0,20.7,N/A,,Overcast,280,2012-11-11 08:13:00
2:33 AM,35.6,35.6,100,29.61,10.0,West,15.0,21.9,N/A,,Overcast,280,2012-11-11 08:33:00
2:53 AM,35.6,35.6,100,29.61,10.0,West,13.8,21.9,N/A,,Overcast,280,2012-11-11 08:53:00
3:13 AM,35.6,33.8,93,29.63,10.0,West,11.5,18.4,N/A,,Overcast,280,2012-11-11 09:13:00
3:33 AM,33.8,33.8,100,29.65,10.0,West,15.0,20.7,N/A,,Overcast,280,2012-11-11 09:33:00
3:53 AM,33.8,33.8,100,29.64,10.0,WNW,10.4,-,N/A,,Overcast,290,2012-11-11 09:53:00
4:13 AM,33.8,33.8,100,29.66,10.0,West,16.1,23.0,N/A,,Overcast,280,2012-11-11 10:13:00
4:33 AM,32.0,32.0,100,29.68,10.0,WNW,15.0,20.7,N/A,,Overcast,290,2012-11-11 10:33:00
4:53 AM,30.2,30.2,100,29.70,10.0,West,15.0,21.9,N/A,,Overcast,270,2012-11-11 10:53:00
5:33 AM,30.2,28.4,93,29.70,10.0,WNW,16.1,24.2,N/A,,Overcast,290,2012-11-11 11:33:00
5:53 AM,28.4,26.6,93,29.71,10.0,WNW,19.6,26.5,N/A,,Overcast,290,2012-11-11 11:53:00
6:13 AM,28.4,26.6,93,29.72,10.0,WNW,15.0,24.2,N/A,,Overcast,290,2012-11-11 12:13:00
6:33 AM,28.4,26.6,93,29.74,10.0,West,13.8,21.9,N/A,,Overcast,280,2012-11-11 12:33:00
6:53 AM,28.4,26.6,93,29.72,10.0,WNW,17.3,25.3,N/A,,Overcast,300,2012-11-11 12:53:00
7:33 AM,28.4,26.6,93,29.75,10.0,West,13.8,21.9,N/A,,Overcast,280,2012-11-11 13:33:00
8:13 AM,28.4,24.8,86,29.77,10.0,WNW,15.0,21.9,N/A,,Overcast,290,2012-11-11 14:13:00
8:33 AM,26.6,24.8,93,29.78,10.0,WNW,15.0,23.0,N/A,,Overcast,290,2012-11-11 14:33:00
8:53 AM,26.6,24.8,93,29.79,10.0,West,15.0,21.9,N/A,,Overcast,280,2012-11-11 14:53:00
9:13 AM,26.6,23.0,86,29.80,10.0,NW,13.8,19.6,N/A,,Overcast,310,2012-11-11 15:13:00
9:33 AM,26.6,23.0,86,29.79,10.0,NW,10.4,17.3,N/A,,Overcast,310,2012-11-11 15:33:00
9:53 AM,26.6,23.0,86,29.76,10.0,West,13.8,19.6,N/A,,Overcast,280,2012-11-11 15:53:00
10:13 AM,26.6,24.8,93,29.78,10.0,WNW,12.7,21.9,N/A,,Overcast,290,2012-11-11 16:13:00
10:33 AM,26.6,23.0,86,29.80,10.0,West,12.7,20.7,N/A,,Overcast,280,2012-11-11 16:33:00
10:53 AM,26.6,21.2,80,29.80,10.0,WNW,15.0,20.7,N/A,,Overcast,290,2012-11-11 16:53:00
11:13 AM,26.6,21.2,80,29.78,10.0,WNW,12.7,18.4,N/A,,Overcast,300,2012-11-11 17:13:00
11:33 AM,26.6,21.2,80,29.80,10.0,West,16.1,21.9,N/A,,Overcast,280,2012-11-11 17:33:00
12:13 PM,26.6,21.2,80,29.80,10.0,WNW,13.8,20.7,N/A,,Overcast,300,2012-11-11 18:13:00
12:33 PM,26.6,21.2,80,29.79,10.0,West,13.8,23.0,N/A,,Overcast,280,2012-11-11 18:33:00
12:53 PM,24.8,21.2,86,29.80,10.0,West,16.1,23.0,N/A,,Overcast,280,2012-11-11 18:53:00
1:13 PM,24.8,19.4,80,29.80,10.0,WNW,15.0,23.0,N/A,,Overcast,290,2012-11-11 19:13:00
1:33 PM,24.8,19.4,80,29.79,10.0,WNW,17.3,23.0,N/A,,Overcast,290,2012-11-11 19:33:00
1:53 PM,24.8,19.4,80,29.79,10.0,West,11.5,24.2,N/A,,Overcast,280,2012-11-11 19:53:00
2:13 PM,26.6,19.4,74,29.79,10.0,West,16.1,23.0,N/A,,Overcast,270,2012-11-11 20:13:00
2:33 PM,24.8,19.4,80,29.80,10.0,West,15.0,19.6,N/A,,Overcast,270,2012-11-11 20:33:00
2:53 PM,26.6,19.4,74,29.80,10.0,WNW,15.0,20.7,N/A,,Overcast,290,2012-11-11 20:53:00
3:13 PM,26.6,19.4,74,29.81,10.0,West,18.4,21.9,N/A,,Mostly Cloudy,280,2012-11-11 21:13:00
3:33 PM,26.6,19.4,74,29.82,10.0,West,12.7,23.0,N/A,,Overcast,280,2012-11-11 21:33:00
3:53 PM,26.6,19.4,74,29.82,10.0,WNW,18.4,23.0,N/A,,Overcast,290,2012-11-11 21:53:00
4:13 PM,24.8,19.4,80,29.84,10.0,West,11.5,23.0,N/A,,Overcast,280,2012-11-11 22:13:00
4:32 PM,24.8,17.6,74,29.84,10.0,WNW,12.7,20.7,N/A,,Overcast,290,2012-11-11 22:32:00
4:53 PM,24.8,17.6,74,29.85,10.0,West,13.8,21.9,N/A,,Overcast,270,2012-11-11 22:53:00
5:13 PM,24.8,17.6,74,29.86,10.0,West,15.0,25.3,N/A,,Overcast,280,2012-11-11 23:13:00
5:32 PM,24.8,17.6,74,29.86,10.0,West,16.1,25.3,N/A,,Overcast,270,2012-11-11 23:32:00
5:53 PM,24.8,17.6,74,29.87,10.0,West,18.4,26.5,N/A,,Overcast,280,2012-11-11 23:53:00
6:13 PM,23.0,15.8,74,29.88,10.0,West,13.8,21.9,N/A,,Overcast,270,2012-11-12 00:13:00
6:33 PM,23.0,15.8,74,29.89,10.0,West,15.0,21.9,N/A,,Overcast,270,2012-11-12 00:33:00
6:53 PM,21.2,15.8,80,29.89,10.0,West,20.7,28.8,N/A,Snow,Light Snow,270,2012-11-12 00:53:00
7:13 PM,21.2,15.8,80,29.89,10.0,West,17.3,28.8,N/A,,Overcast,270,2012-11-12 01:13:00
7:33 PM,21.2,15.8,80,29.90,10.0,West,17.3,24.2,N/A,,Overcast,270,2012-11-12 01:33:00
7:53 PM,21.2,14.0,74,29.90,10.0,West,15.0,25.3,N/A,Snow,Light Snow,280,2012-11-12 01:53:00
8:12 PM,21.2,15.8,80,29.91,10.0,West,17.3,23.0,N/A,Snow,Light Snow,280,2012-11-12 02:12:00
8:33 PM,19.4,12.2,74,29.92,10.0,West,17.3,28.8,N/A,,Overcast,280,2012-11-12 02:33:00
8:53 PM,19.4,12.2,74,29.92,10.0,West,16.1,26.5,N/A,,Overcast,280,2012-11-12 02:53:00
9:13 PM,19.4,12.2,74,29.93,10.0,West,16.1,25.3,N/A,Snow,Light Snow,270,2012-11-12 03:13:00
9:33 PM,19.4,12.2,74,29.93,10.0,West,15.0,25.3,N/A,Snow,Light Snow,270,2012-11-12 03:33:00
9:53 PM,19.4,12.2,74,29.93,10.0,West,17.3,23.0,N/A,Snow,Light Snow,270,2012-11-12 03:53:00
10:13 PM,19.4,12.2,74,29.93,10.0,West,13.8,20.7,N/A,,Mostly Cloudy,270,2012-11-12 04:13:00
10:33 PM,17.6,10.4,73,29.93,10.0,West,11.5,18.4,N/A,,Scattered Clouds,280,2012-11-12 04:33:00
10:53 PM,17.6,12.2,79,29.92,10.0,West,13.8,17.3,N/A,,Mostly Cloudy,270,2012-11-12 04:53:00
11:13 PM,17.6,12.2,79,29.92,10.0,West,11.5,18.4,N/A,,Mostly Cloudy,270,2012-11-12 05:13:00
11:33 PM,17.6,12.2,79,29.92,10.0,West,13.8,18.4,N/A,,Scattered Clouds,260,2012-11-12 05:33:00
11:53 PM,17.6,12.2,79,29.92,10.0,West,12.7,23.0,N/A,,Scattered Clouds,260,2012-11-12 05:53:00